TimeEDT,TemperatureF,Dew PointF,Humidity,Sea Level PressureIn,VisibilityMPH,Wind Direction,Wind SpeedMPH,Gust SpeedMPH,PrecipitationIn,Events,Conditions,WindDirDegrees,DateUTC
12:52 AM,60.1,57.0,90,29.93,6.0,Calm,Calm,-,N/A,,Clear,0,2013-08-28 04:52:00
1:21 AM,57.2,55.4,94,29.93,2.0,Calm,Calm,-,N/A,,Partly Cloudy,0,2013-08-28 05:21:00
1:27 AM,57.2,55.4,94,29.93,1.0,Calm,Calm,-,N/A,,Mist,0,2013-08-28 05:27:00
1:38 AM,57.2,55.4,94,29.93,1.5,Calm,Calm,-,N/A,,Mostly Cloudy,0,2013-08-28 05:38:00
1:48 AM,59.0,55.4,88,29.92,0.8,Calm,Calm,-,N/A,,Mist,0,2013-08-28 05:48:00
1:52 AM,57.9,55.9,93,29.91,0.8,Calm,Calm,-,N/A,,Mist,0,2013-08-28 05:52:00
1:57 AM,57.2,55.4,94,29.92,1.2,Calm,Calm,-,N/A,,Overcast,0,2013-08-28 05:57:00
1:59 AM,57.2,55.4,94,29.92,4.0,Calm,Calm,-,N/A,,Overcast,0,2013-08-28 05:59:00
2:17 AM,57.2,55.4,94,29.92,1.0,Calm,Calm,-,N/A,,Mist,0,2013-08-28 06:17:00
2:24 AM,57.2,55.4,94,29.92,0.2,Calm,Calm,-,N/A,Fog,Fog,0,2013-08-28 06:24:00
2:45 AM,57.2,55.4,94,29.92,1.2,Calm,Calm,-,N/A,,Overcast,0,2013-08-28 06:45:00
2:47 AM,57.2,55.4,94,29.92,0.8,SE,3.5,-,N/A,,Mist,140,2013-08-28 06:47:00
2:52 AM,57.0,54.0,89,29.91,0.2,South,3.5,-,N/A,Fog,Fog,180,2013-08-28 06:52:00
3:26 AM,57.2,55.4,94,29.92,1.0,Calm,Calm,-,N/A,,Overcast,0,2013-08-28 07:26:00
3:33 AM,57.2,55.4,94,29.92,2.0,Calm,Calm,-,N/A,,Overcast,0,2013-08-28 07:33:00
3:41 AM,57.2,55.4,94,29.92,4.0,Calm,Calm,-,N/A,,Overcast,0,2013-08-28 07:41:00
3:49 AM,57.2,55.4,94,29.92,1.8,Calm,Calm,-,N/A,,Overcast,0,2013-08-28 07:49:00
3:52 AM,57.0,55.0,93,29.91,2.0,Calm,Calm,-,N/A,,Overcast,0,2013-08-28 07:52:00
4:01 AM,57.2,55.4,94,29.92,1.0,Calm,Calm,-,N/A,,Overcast,0,2013-08-28 08:01:00
4:08 AM,57.2,55.4,94,29.92,0.2,Calm,Calm,-,N/A,Fog,Fog,0,2013-08-28 08:08:00
4:52 AM,55.9,54.0,93,29.91,0.2,Calm,Calm,-,N/A,Fog,Fog,0,2013-08-28 08:52:00
5:52 AM,55.9,54.0,93,29.93,0.5,Calm,Calm,-,0.01,Fog,Fog,0,2013-08-28 09:52:00
6:06 AM,57.2,53.6,88,29.94,1.2,Calm,Calm,-,N/A,,Overcast,0,2013-08-28 10:06:00
6:15 AM,55.4,53.6,94,29.94,0.8,Calm,Calm,-,N/A,,Overcast,0,2013-08-28 10:15:00
6:52 AM,57.0,55.0,93,29.94,0.2,Calm,Calm,-,N/A,Fog,Fog,0,2013-08-28 10:52:00
7:52 AM,60.1,57.9,93,29.94,0.8,Calm,Calm,-,N/A,,Mostly Cloudy,0,2013-08-28 11:52:00
7:54 AM,60.8,59.0,94,29.94,1.2,Calm,Calm,-,N/A,,Mostly Cloudy,0,2013-08-28 11:54:00
7:57 AM,60.8,59.0,94,29.94,3.0,Calm,Calm,-,N/A,,Mostly Cloudy,0,2013-08-28 11:57:00
8:09 AM,60.8,59.0,94,29.94,5.0,Calm,Calm,-,N/A,,Scattered Clouds,0,2013-08-28 12:09:00
8:52 AM,64.9,61.0,87,29.94,9.0,Calm,Calm,-,N/A,,Clear,0,2013-08-28 12:52:00
9:52 AM,71.1,63.0,75,29.94,10.0,Calm,Calm,-,N/A,,Overcast,0,2013-08-28 13:52:00
10:52 AM,75.0,64.0,69,29.95,10.0,Calm,Calm,-,N/A,,Mostly Cloudy,0,2013-08-28 14:52:00
11:52 AM,80.1,66.0,62,29.92,10.0,Calm,Calm,-,N/A,,Clear,0,2013-08-28 15:52:00
12:52 PM,82.0,63.0,52,29.90,10.0,NNW,3.5,-,N/A,,Clear,330,2013-08-28 16:52:00
1:52 PM,84.0,62.1,47,29.90,10.0,WNW,3.5,-,N/A,,Partly Cloudy,290,2013-08-28 17:52:00
2:52 PM,84.0,61.0,46,29.88,10.0,SW,4.6,-,N/A,,Partly Cloudy,220,2013-08-28 18:52:00
3:52 PM,84.0,62.1,47,29.87,10.0,NE,6.9,-,N/A,,Mostly Cloudy,50,2013-08-28 19:52:00
4:52 PM,75.9,61.0,60,29.88,10.0,Variable,4.6,-,N/A,Thunderstorm,Thunderstorm,0,2013-08-28 20:52:00
5:52 PM,73.0,60.1,64,29.92,10.0,Calm,Calm,-,N/A,Thunderstorm,Thunderstorm,0,2013-08-28 21:52:00
6:52 PM,70.0,62.1,76,29.93,10.0,Calm,Calm,-,N/A,Thunderstorm,Mostly Cloudy,0,2013-08-28 22:52:00
7:08 PM,69.8,62.6,78,29.94,10.0,WNW,4.6,-,N/A,,Scattered Clouds,300,2013-08-28 23:08:00
7:38 PM,69.8,62.6,78,29.96,10.0,Calm,Calm,-,N/A,Thunderstorm,Mostly Cloudy,0,2013-08-28 23:38:00
7:52 PM,69.1,63.0,81,29.96,10.0,Calm,Calm,-,N/A,,Overcast,0,2013-08-28 23:52:00
8:52 PM,66.9,64.0,90,29.98,7.0,Calm,Calm,-,0.08,Rain,Light Rain,0,2013-08-29 00:52:00
9:52 PM,68.0,63.0,84,29.99,10.0,ENE,10.4,-,0.01,Rain,Light Rain,70,2013-08-29 01:52:00
10:52 PM,66.0,62.1,87,29.99,10.0,Variable,3.5,-,0.01,,Clear,0,2013-08-29 02:52:00
11:52 PM,63.0,60.1,90,29.99,10.0,Calm,Calm,-,N/A,,Clear,0,2013-08-29 03:52:00